"startDT [UTC]","vpos","CH4 [ppm]","stdev(CH4) [ppm]","CO2 [ppm]","stdev(CO2) [ppm]","H2O_reported [%]","stdev(H2O_reported)","CavityPressure [torr]","CavityTemp [C]","OutletValve","CH4_dry [ppm]","CO2_dry [ppm]","DasTemp [C]","EtalonTemp [C]","WarmBoxTemp [C]","MPVPosition","T_ECpre [C]","T_EC1 [C]","T_EC2 [C]","p_inlet [hPa]","p_in [hPa]","p_out [hPa]","T_inlet [C]","RH_inlet [%]","dwpt_inlet [C]","T_vent [C]","RH_vent [%]","dwpt_vent [C]","flow_vent [l min-1]","flow_inlet [l min-1]","dwpt_sample [C]","T_room [C]"
2016-07-28 00:00:00,0.0,1.90320,0.00065,387.940,0.150,0.9038,0.0107,140.001,45.000,31867.74660,1.92056,392.280,36.682,45.070,45.000,0.00,0.09,-272.79,-272.84,-17,529,-945,25.7,21.0,1.8,25.3,22.1,2.1,5.73,1.93,2.9,29.8
2016-07-28 00:01:00,0.0,1.90461,0.00063,387.722,0.142,0.9841,0.0143,139.999,45.000,31867.63636,1.92362,392.455,36.687,45.070,45.000,0.00,0.09,-272.79,-272.85,-16,529,-945,25.7,22.9,3.0,25.3,23.2,2.8,5.73,1.63,2.9,29.7
2016-07-28 00:02:00,0.0,1.90390,0.00039,387.399,0.078,1.0007,0.0063,140.001,45.000,31869.82371,1.92327,392.218,36.685,45.070,45.000,0.00,0.09,-272.79,-272.85,-17,529,-945,25.7,23.2,3.1,25.3,24.0,3.3,5.73,1.97,2.9,29.7
2016-07-28 00:03:00,0.0,1.90403,0.00055,387.604,0.147,0.9844,0.0101,139.998,45.000,31870.77844,1.92307,392.341,36.686,45.070,45.000,0.00,0.09,-272.78,-272.85,-16,529,-945,25.7,22.8,2.9,25.4,23.8,3.2,5.73,1.63,2.9,29.8
2016-07-28 00:04:00,0.0,1.90332,0.00064,387.546,0.077,0.9973,0.0141,140.001,45.000,31872.78435,1.92265,392.348,36.689,45.070,45.000,0.00,0.09,-272.80,-272.85,-17,529,-945,25.7,23.0,3.0,25.4,24.1,3.4,5.73,1.94,2.9,29.8
2016-07-28 00:05:00,0.0,1.90208,0.00047,387.504,0.253,0.9454,0.0146,140.000,45.000,31872.18538,1.92035,392.049,36.692,45.070,45.000,0.00,0.09,-272.79,-272.85,-17,529,-945,25.8,21.9,2.3,25.4,23.1,2.8,5.73,1.69,2.9,29.8
2016-07-28 00:06:00,0.0,1.90315,0.00052,387.524,0.185,0.9823,0.0140,139.995,45.000,31869.99167,1.92208,392.243,36.697,45.070,45.000,0.00,0.09,-272.78,-272.84,-16,529,-945,25.8,22.8,2.9,25.4,23.5,3.0,5.73,1.86,2.9,29.7
2016-07-28 00:07:00,0.0,1.90286,0.00046,387.461,0.066,0.9764,0.0061,140.000,45.000,31870.10011,1.92175,392.155,36.695,45.070,45.000,0.00,0.09,-272.78,-272.85,-18,529,-945,25.8,22.5,2.8,25.4,23.5,3.1,5.73,1.79,2.9,29.8
2016-07-28 00:08:00,0.0,1.90274,0.00048,387.753,0.117,0.9418,0.0165,140.000,45.000,31867.78875,1.92094,392.277,36.701,45.070,45.000,0.00,0.09,-272.79,-272.85,-16,529,-945,25.8,21.6,2.2,25.4,23.0,2.7,5.73,1.75,2.9,29.8
2016-07-28 00:09:00,0.0,1.90285,0.00036,388.089,0.210,0.8894,0.0104,139.997,45.000,31868.58062,1.92001,392.371,36.736,45.070,45.000,0.00,0.09,-272.78,-272.85,-17,529,-945,25.8,20.5,1.5,25.4,21.7,1.9,5.73,1.89,2.9,29.8
2016-07-28 00:10:00,0.0,1.90256,0.00039,388.028,0.188,0.9045,0.0104,139.998,45.000,31870.72057,1.91996,392.364,36.750,45.070,45.000,0.00,0.09,-272.78,-272.85,-17,529,-945,25.8,20.8,1.7,25.4,21.7,1.9,5.73,1.66,2.9,29.8
2016-07-28 00:11:00,0.0,1.90301,0.00050,387.939,0.104,0.8980,0.0074,140.001,45.000,31870.70921,1.92035,392.253,36.736,45.069,45.000,0.00,0.09,-272.79,-272.85,-16,529,-945,25.8,20.7,1.6,25.4,21.6,1.9,5.73,1.96,2.9,29.8
2016-07-28 00:12:00,0.0,1.90256,0.00029,387.780,0.188,0.9009,0.0112,140.000,45.000,31870.63001,1.91990,392.108,36.746,45.069,45.000,0.00,0.09,-272.78,-272.84,-18,529,-945,25.8,20.8,1.7,25.4,21.7,1.9,5.73,1.62,2.9,29.8
2016-07-28 00:13:00,0.0,1.90211,0.00047,387.423,0.160,0.9355,0.0065,139.998,45.000,31870.95162,1.92017,391.911,36.749,45.070,45.000,0.00,0.09,-272.78,-272.84,-16,529,-945,25.8,21.6,2.2,25.4,22.3,2.3,5.73,1.97,2.9,29.8
2016-07-28 00:14:00,0.0,1.90177,0.00037,387.530,0.217,0.9364,0.0161,140.000,45.000,31872.87451,1.91983,392.033,36.747,45.070,45.000,0.00,0.09,-272.78,-272.85,-17,529,-945,25.8,21.6,2.2,25.4,22.5,2.5,5.73,1.63,2.9,29.8
2016-07-28 00:15:00,0.0,1.90211,0.00046,387.763,0.311,0.9148,0.0161,139.998,45.000,31872.28678,1.91972,392.154,36.744,45.070,45.000,0.00,0.09,-272.80,-272.85,-17,529,-945,25.8,21.1,1.9,25.4,22.1,2.2,5.73,1.93,2.9,29.8
2016-07-28 00:16:00,0.0,1.90172,0.00030,387.478,0.133,0.9349,0.0064,139.999,45.000,31874.43222,1.91977,391.960,36.744,45.070,45.000,0.00,0.09,-272.78,-272.85,-16,529,-945,25.8,21.5,2.2,25.5,22.4,2.4,5.73,1.70,3.0,29.8
2016-07-28 00:17:00,0.0,1.90180,0.00036,387.720,0.125,0.9252,0.0058,139.996,45.000,31872.43215,1.91963,392.162,36.716,45.070,45.000,0.00,0.09,-272.79,-272.84,-18,529,-945,25.8,21.3,2.0,25.5,22.3,2.4,5.73,1.84,3.0,29.8
2016-07-28 00:18:00,0.0,1.90201,0.00034,388.037,0.094,0.9115,0.0068,140.000,45.000,31874.89631,1.91954,392.415,36.721,45.070,45.000,0.00,0.09,-272.79,-272.85,-16,529,-945,25.8,21.0,1.8,25.5,22.0,2.2,5.73,1.79,3.0,29.9
2016-07-28 00:19:00,0.0,1.90235,0.00032,388.037,0.061,0.9088,0.0088,140.000,45.000,31873.99189,1.91987,392.406,36.731,45.070,45.000,0.00,0.09,-272.79,-272.84,-16,529,-945,25.8,20.9,1.7,25.4,21.9,2.1,5.73,1.74,3.0,29.8
2016-07-28 00:20:00,0.0,1.90213,0.00042,387.927,0.236,0.8998,0.0155,139.997,45.000,31872.70686,1.91948,392.255,36.701,45.070,45.000,0.00,0.09,-272.78,-272.84,-17,529,-945,25.9,20.7,1.7,25.5,21.6,1.9,5.73,1.89,3.0,29.9
2016-07-28 00:21:00,0.0,1.90226,0.00043,387.682,0.137,0.9147,0.0128,140.000,45.000,31871.69559,1.91988,392.067,36.689,45.070,45.000,0.00,0.09,-272.79,-272.85,-16,529,-945,25.8,21.0,1.8,25.5,21.9,2.1,5.73,1.66,3.0,29.9
2016-07-28 00:22:00,0.0,1.90245,0.00048,387.743,0.179,0.9066,0.0099,139.998,45.000,31874.12159,1.91991,392.101,36.696,45.070,45.001,0.00,0.09,-272.79,-272.85,-17,529,-945,25.9,20.8,1.7,25.5,21.7,2.0,5.73,1.95,3.0,29.9
2016-07-28 00:23:00,0.0,1.90205,0.00041,387.725,0.335,0.9108,0.0149,140.005,45.000,31878.97729,1.91964,392.089,36.716,45.070,45.000,0.00,0.09,-272.77,-272.85,-16,529,-945,25.8,20.8,1.7,25.5,21.9,2.1,5.73,1.62,3.0,29.8
2016-07-28 00:24:00,0.0,1.90202,0.00036,387.969,0.196,0.8939,0.0105,140.000,45.000,31877.12041,1.91922,392.267,36.687,45.070,45.000,0.00,0.09,-272.79,-272.85,-16,529,-945,25.8,20.6,1.6,25.5,21.5,1.8,5.73,1.97,3.0,29.7
2016-07-28 00:25:00,0.0,1.90173,0.00045,387.827,0.254,0.9080,0.0150,139.999,45.000,31876.86417,1.91921,392.182,36.645,45.070,45.000,0.00,0.09,-272.79,-272.86,-18,530,-945,25.9,20.9,1.8,25.5,21.8,2.0,5.73,1.64,3.0,29.6
2016-07-28 00:26:00,0.0,1.90158,0.00034,387.692,0.168,0.9274,0.0115,139.998,45.000,31876.08898,1.91946,392.146,36.615,45.070,45.000,0.00,0.09,-272.79,-272.84,-16,529,-945,25.8,21.4,2.1,25.5,22.0,2.2,5.73,1.91,2.9,29.7
2016-07-28 00:27:00,0.0,1.90136,0.00044,387.614,0.135,0.9359,0.0055,139.998,44.999,31873.78320,1.91940,392.114,36.568,45.069,44.999,0.00,0.09,-272.78,-272.85,-17,529,-945,25.8,21.6,2.2,25.4,22.4,2.4,5.73,1.72,2.9,29.8
2016-07-28 00:28:00,0.0,1.90156,0.00042,387.567,0.200,0.9300,0.0145,139.999,44.999,31871.59705,1.91951,392.034,36.547,45.069,45.000,0.00,0.09,-272.80,-272.85,-17,530,-945,25.8,21.4,2.1,25.4,22.4,2.4,5.73,1.82,2.9,29.7
2016-07-28 00:29:00,0.0,1.90200,0.00045,387.926,0.217,0.8914,0.0162,140.001,44.999,31870.29305,1.91915,392.201,36.506,45.069,44.999,0.00,0.09,-272.79,-272.85,-16,529,-945,25.8,20.5,1.4,25.4,21.7,1.9,5.73,1.81,2.8,29.7
2016-07-28 00:30:00,0.0,1.90223,0.00033,387.984,0.138,0.8875,0.0116,140.000,44.999,31870.06180,1.91934,392.243,36.500,45.069,44.999,0.00,0.09,-272.78,-272.83,-18,529,-945,25.8,20.4,1.4,25.4,21.4,1.7,5.73,1.76,2.8,29.7
2016-07-28 00:31:00,0.0,1.90214,0.00046,387.899,0.208,0.8933,0.0116,139.998,44.999,31868.48818,1.91931,392.184,36.500,45.069,44.999,0.00,0.09,-272.79,-272.85,-16,529,-945,25.7,20.6,1.5,25.4,21.4,1.7,5.73,1.84,2.8,29.7
2016-07-28 00:32:00,0.0,1.90197,0.00052,387.687,0.352,0.9093,0.0200,140.000,44.999,31866.24470,1.91949,392.061,36.500,45.068,44.998,0.00,0.09,-272.79,-272.84,-17,529,-945,25.7,21.1,1.8,25.3,21.7,1.9,5.73,1.75,2.7,29.7
2016-07-28 00:33:00,0.0,1.90198,0.00043,387.773,0.249,0.9164,0.0167,140.001,44.999,31862.60847,1.91964,392.164,36.502,45.068,44.998,0.00,0.09,-272.79,-272.84,-16,529,-945,25.7,21.1,1.8,25.3,22.2,2.2,5.73,1.82,2.7,29.7
2016-07-28 00:34:00,0.0,1.90262,0.00046,388.007,0.114,0.8929,0.0051,139.999,44.999,31860.92659,1.91981,392.299,36.531,45.068,44.999,0.00,0.09,-272.79,-272.84,-17,528,-945,25.6,20.7,1.5,25.3,21.6,1.8,5.73,1.83,2.7,29.7
2016-07-28 00:35:00,0.0,1.90250,0.00044,387.927,0.081,0.9023,0.0050,140.001,45.000,31860.23598,1.91989,392.260,36.616,45.068,44.999,0.00,0.09,-272.78,-272.86,-16,528,-945,25.6,21.0,1.6,25.3,21.8,1.8,5.73,1.70,2.6,29.6
2016-07-28 00:36:00,0.0,1.90188,0.00052,387.851,0.135,0.9155,0.0060,139.999,45.001,31860.00971,1.91951,392.244,36.790,45.069,45.000,0.00,0.09,-272.79,-272.85,-17,528,-945,25.6,21.3,1.8,25.2,22.0,2.0,5.73,1.94,2.6,29.6
2016-07-28 00:37:00,0.0,1.90208,0.00046,387.898,0.169,0.9065,0.0105,139.997,45.002,31858.72130,1.91955,392.251,37.029,45.070,45.001,0.00,0.09,-272.78,-272.83,-16,527,-945,25.5,21.1,1.7,25.2,22.1,2.0,5.73,1.69,2.5,29.6
2016-07-28 00:38:00,0.0,1.90224,0.00040,387.874,0.180,0.9095,0.0128,139.999,45.002,31856.65389,1.91978,392.244,37.306,45.071,45.002,0.00,0.09,-272.78,-272.86,-17,527,-946,25.5,21.2,1.7,25.2,22.1,2.0,5.73,1.78,2.5,29.7
2016-07-28 00:39:00,0.0,1.90251,0.00031,387.882,0.122,0.9080,0.0121,139.997,45.003,31852.28734,1.92001,392.242,37.588,45.072,45.002,0.00,0.09,-272.79,-272.85,-16,527,-946,25.5,21.3,1.7,25.1,22.0,1.9,5.73,1.92,2.5,29.7
2016-07-28 00:40:00,0.0,1.90202,0.00041,387.626,0.223,0.9312,0.0105,139.997,45.004,31848.21902,1.91994,392.097,37.875,45.072,45.002,0.00,0.09,-272.79,-272.84,-16,527,-946,25.5,21.8,2.1,25.2,22.5,2.3,5.73,1.72,2.5,29.8
2016-07-28 00:41:00,0.0,1.90245,0.00043,387.760,0.152,0.9188,0.0136,140.001,45.004,31846.54619,1.92018,392.176,38.161,45.071,45.002,0.00,0.09,-272.78,-272.85,-17,527,-946,25.5,21.5,1.9,25.1,22.4,2.2,5.73,1.74,2.4,29.8
2016-07-28 00:42:00,0.0,1.90242,0.00032,387.785,0.149,0.9192,0.0095,140.000,45.004,31839.97185,1.92014,392.199,38.402,45.071,45.001,0.00,0.09,-272.79,-272.85,-16,527,-946,25.5,21.5,1.9,25.2,22.3,2.1,5.73,1.92,2.4,29.9
2016-07-28 00:43:00,0.0,1.90251,0.00050,387.813,0.168,0.9187,0.0101,140.000,45.004,31835.59356,1.92019,392.221,38.593,45.070,45.000,0.00,0.09,-272.79,-272.86,-16,527,-946,25.5,21.5,1.9,25.2,22.4,2.2,5.73,1.78,2.4,29.9
2016-07-28 00:44:00,0.0,1.90244,0.00035,388.005,0.073,0.9066,0.0049,139.997,45.004,31832.85913,1.91995,392.364,38.735,45.070,45.001,0.00,0.09,-272.76,-272.84,-17,526,-946,25.5,21.2,1.7,25.2,22.1,2.0,5.73,1.69,2.4,30.0
2016-07-28 00:45:00,0.0,1.90254,0.00032,387.910,0.179,0.9143,0.0104,139.998,45.005,31835.24393,1.92014,392.298,38.871,45.070,45.001,0.00,0.09,-272.79,-272.83,-16,526,-947,25.5,21.3,1.8,25.3,22.1,2.1,5.73,1.86,2.3,30.1
2016-07-28 00:46:00,0.0,1.90244,0.00039,387.952,0.141,0.9048,0.0086,140.000,45.005,31843.77002,1.91987,392.301,38.975,45.071,45.002,0.00,0.09,-272.79,-272.84,-16,527,-947,25.6,21.2,1.7,25.3,22.0,2.0,5.73,1.89,2.3,30.1
2016-07-28 00:47:00,0.0,1.90261,0.00039,387.776,0.213,0.9165,0.0150,140.000,45.005,31850.99635,1.92028,392.177,39.078,45.072,45.003,0.00,0.09,-272.78,-272.84,-17,526,-948,25.6,21.4,1.9,25.3,22.2,2.2,5.73,1.70,2.4,30.2
2016-07-28 00:48:00,0.0,1.90314,0.00043,387.975,0.148,0.9024,0.0113,139.999,45.005,31860.45226,1.92052,392.309,39.151,45.073,45.004,0.00,0.09,-272.78,-272.86,-15,526,-948,25.6,21.2,1.8,25.3,21.9,2.0,5.73,1.76,2.4,30.2
2016-07-28 00:49:00,0.0,1.90264,0.00049,388.035,0.207,0.9038,0.0149,139.999,45.004,31870.13738,1.92007,392.373,39.190,45.073,45.003,0.00,0.09,-272.79,-272.85,-16,527,-948,25.5,21.2,1.7,25.3,22.0,2.0,5.73,1.94,2.3,30.3
2016-07-28 00:50:00,0.0,1.90269,0.00050,387.921,0.150,0.9166,0.0162,140.000,45.003,31878.12787,1.92037,392.330,39.210,45.072,45.003,0.00,0.09,-272.78,-272.84,-16,527,-948,25.5,21.6,2.0,25.3,22.1,2.1,5.73,1.69,2.4,30.3
2016-07-28 00:51:00,0.0,1.90254,0.00049,387.903,0.182,0.9138,0.0157,139.998,45.002,31884.39940,1.92014,392.289,39.190,45.072,45.002,0.00,0.09,-272.78,-272.84,-15,527,-948,25.5,21.5,1.9,25.3,22.2,2.2,5.73,1.80,2.4,30.3
2016-07-28 00:52:00,0.0,1.90233,0.00050,387.680,0.096,0.9311,0.0071,140.000,45.001,31889.50623,1.92028,392.150,39.149,45.070,45.001,0.00,0.09,-272.79,-272.85,-17,527,-948,25.5,21.9,2.2,25.3,22.4,2.3,5.73,1.88,2.4,30.2
2016-07-28 00:53:00,0.0,1.90241,0.00048,387.840,0.257,0.9220,0.0137,140.002,44.999,31893.93530,1.92021,392.275,39.054,45.069,45.000,0.00,0.09,-272.78,-272.85,-15,527,-948,25.5,21.7,2.1,25.3,22.4,2.3,5.73,1.66,2.4,30.3
2016-07-28 00:54:00,0.0,1.90235,0.00061,387.812,0.249,0.9222,0.0157,140.000,44.998,31894.76560,1.92010,392.236,38.952,45.068,44.999,0.00,0.09,-272.79,-272.84,-17,527,-948,25.6,21.6,2.0,25.3,22.4,2.3,5.73,1.95,2.4,30.3
2016-07-28 00:55:00,0.0,1.90255,0.00047,387.968,0.131,0.9280,0.0054,140.002,44.997,31896.64852,1.92046,392.431,38.842,45.068,44.999,0.00,0.09,-272.79,-272.85,-16,528,-948,25.6,21.8,2.2,25.4,22.4,2.3,5.73,1.63,2.4,30.3
2016-07-28 00:56:00,0.0,1.90219,0.00060,387.965,0.117,0.9215,0.0125,140.000,44.997,31898.19699,1.91994,392.390,38.703,45.068,44.999,0.00,0.09,-272.79,-272.84,-16,527,-948,25.6,21.6,2.0,25.4,22.4,2.4,5.73,1.96,2.4,30.3
2016-07-28 00:57:00,0.0,1.90222,0.00038,387.644,0.188,0.9362,0.0091,140.000,44.996,31896.20407,1.92028,392.146,38.554,45.068,44.999,0.00,0.09,-272.78,-272.84,-17,528,-948,25.6,21.9,2.2,25.4,22.5,2.4,5.73,1.63,2.4,30.3
2016-07-28 00:58:00,0.0,1.90271,0.00046,387.949,0.246,0.9003,0.0171,140.000,44.996,31893.62146,1.92007,392.270,38.412,45.068,44.999,0.00,0.09,-272.79,-272.85,-15,528,-947,25.6,21.0,1.6,25.4,22.1,2.2,5.73,1.94,2.4,30.3
2016-07-28 00:59:00,0.0,1.90237,0.00049,387.782,0.197,0.9084,0.0150,140.001,44.996,31893.64603,1.91987,392.144,38.259,45.068,45.000,0.00,0.09,-272.79,-272.85,-17,528,-947,25.6,21.2,1.8,25.4,21.8,2.0,5.73,1.70,2.4,30.2
2016-07-28 01:00:00,0.0,1.90243,0.00038,387.935,0.222,0.9083,0.0127,140.000,44.996,31893.14763,1.91995,392.302,38.131,45.069,45.000,0.00,0.09,-272.78,-272.84,-16,528,-947,25.7,21.2,1.8,25.4,21.9,2.1,5.73,1.81,2.4,30.1
2016-07-28 01:01:00,0.0,1.90242,0.00045,387.952,0.167,0.9167,0.0160,140.000,44.997,31891.00379,1.92007,392.350,38.017,45.069,45.000,0.00,0.09,-272.78,-272.85,-16,528,-947,25.7,21.3,1.9,25.4,22.2,2.3,5.73,1.87,2.4,30.1
2016-07-28 01:02:00,0.0,1.90231,0.00053,387.764,0.168,0.9127,0.0115,139.999,44.997,31890.56080,1.91992,392.147,37.895,45.069,45.000,0.00,0.09,-272.79,-272.85,-17,528,-947,25.7,21.3,1.9,25.4,22.0,2.1,5.73,1.64,2.4,30.1
2016-07-28 01:03:00,0.0,1.90258,0.00040,387.835,0.203,0.9027,0.0142,140.002,44.997,31890.97900,1.91992,392.165,37.775,45.069,45.000,0.00,0.09,-272.79,-272.84,-16,528,-946,25.7,21.1,1.8,25.4,21.7,2.0,5.73,1.97,2.4,30.1
2016-07-28 01:04:00,0.0,1.90211,0.00036,388.059,0.151,0.9739,0.0340,140.003,44.998,31891.88810,1.92090,392.733,37.678,45.069,45.000,0.00,0.09,-272.77,-272.84,-16,528,-946,25.7,22.9,2.9,25.4,22.9,2.7,5.73,1.65,2.4,30.1
2016-07-28 01:05:00,0.0,1.90228,0.00048,387.998,0.111,1.0398,0.0054,140.001,44.998,31888.33452,1.92239,393.016,37.595,45.069,45.000,0.00,0.09,-272.79,-272.85,-17,529,-946,25.7,24.3,3.8,25.4,24.7,3.8,5.73,1.86,2.4,30.0
2016-07-28 01:06:00,0.0,1.90201,0.00044,387.883,0.165,1.0521,0.0133,139.999,44.998,31886.38184,1.92241,392.966,37.509,45.069,44.999,0.00,0.09,-272.78,-272.86,-16,528,-946,25.7,24.7,4.0,25.4,25.2,4.0,5.73,1.83,2.5,30.0
2016-07-28 01:07:00,0.0,1.90153,0.00035,387.796,0.190,1.0610,0.0132,139.999,44.999,31885.30205,1.92207,392.916,37.437,45.069,44.999,0.00,0.09,-272.78,-272.84,-16,528,-946,25.7,24.8,4.1,25.4,25.6,4.3,5.73,1.66,2.5,30.0
2016-07-28 01:08:00,0.0,1.90134,0.00035,387.757,0.240,1.0611,0.0097,140.000,44.999,31883.76035,1.92189,392.874,37.369,45.068,44.999,0.00,0.09,-272.79,-272.85,-17,529,-946,25.7,24.7,4.0,25.4,25.5,4.2,5.73,1.97,2.5,30.0
2016-07-28 01:09:00,0.0,1.90071,0.00050,387.775,0.122,1.0140,0.0357,140.001,44.999,31886.47366,1.92034,392.675,37.311,45.068,44.999,0.00,0.09,-272.79,-272.85,-16,529,-946,25.7,23.4,3.2,25.4,24.9,3.9,5.73,1.65,2.5,29.9
2016-07-28 01:10:00,0.0,1.90154,0.00045,387.850,0.079,0.9467,0.0055,139.998,44.999,31882.02869,1.91980,392.404,37.246,45.068,44.999,0.00,0.09,-272.79,-272.84,-17,529,-946,25.7,21.9,2.3,25.5,23.1,2.9,5.73,1.86,2.5,30.0
2016-07-28 01:11:00,0.0,1.90155,0.00044,387.788,0.076,0.9392,0.0087,139.996,44.999,31880.28376,1.91968,392.307,37.189,45.068,44.999,0.00,0.09,-272.78,-272.84,-17,529,-946,25.7,21.7,2.2,25.5,22.7,2.6,5.73,1.85,2.5,30.0
2016-07-28 01:12:00,0.0,1.90132,0.00038,387.738,0.136,0.9386,0.0083,140.002,44.999,31881.02868,1.91940,392.242,37.147,45.068,44.999,0.00,0.09,-272.79,-272.85,-16,529,-946,25.7,21.7,2.2,25.4,22.5,2.5,5.73,1.65,2.5,30.0
2016-07-28 01:13:00,0.0,1.90129,0.00059,387.749,0.121,0.9354,0.0057,140.002,44.999,31880.84724,1.91931,392.246,37.124,45.068,44.999,0.00,0.09,-272.79,-272.85,-17,529,-945,25.7,21.6,2.1,25.4,22.5,2.5,5.73,1.97,2.5,30.0
2016-07-28 01:14:00,0.0,1.90150,0.00035,387.730,0.131,0.9308,0.0104,140.001,45.000,31877.95467,1.91946,392.205,37.075,45.068,44.999,0.00,0.09,-272.77,-272.84,-17,529,-945,25.8,21.6,2.1,25.4,22.4,2.4,5.73,1.66,2.5,29.9
2016-07-28 01:15:00,0.0,1.90140,0.00039,387.740,0.097,0.9318,0.0094,140.005,44.999,31879.67158,1.91936,392.213,37.052,45.069,44.999,0.00,0.09,-272.79,-272.84,-16,529,-945,25.8,21.5,2.1,25.4,22.4,2.4,5.73,1.83,2.5,30.0
2016-07-28 01:16:00,0.0,1.90138,0.00048,387.758,0.167,0.9323,0.0123,140.000,45.000,31877.61239,1.91938,392.240,37.005,45.069,44.999,0.00,0.09,-272.79,-272.85,-17,529,-945,25.8,21.6,2.2,25.4,22.3,2.4,5.73,1.87,2.5,30.0
2016-07-28 01:17:00,0.0,1.90124,0.00039,387.759,0.135,0.9456,0.0047,140.001,45.000,31879.99729,1.91946,392.302,36.998,45.069,44.999,0.00,0.09,-272.78,-272.85,-17,529,-945,25.8,21.9,2.3,25.5,22.7,2.6,5.73,1.63,2.5,29.9
2016-07-28 01:18:00,0.0,1.90131,0.00041,387.789,0.114,0.9357,0.0098,140.003,45.000,31877.42648,1.91935,392.289,36.950,45.069,44.999,0.00,0.09,-272.79,-272.84,-16,529,-945,25.8,21.6,2.2,25.4,22.6,2.5,5.73,1.96,2.6,29.9
2016-07-28 01:19:00,0.0,1.90171,0.00050,387.928,0.233,0.9084,0.0129,140.001,45.000,31876.29800,1.91921,392.289,36.938,45.069,44.999,0.00,0.09,-272.78,-272.86,-17,529,-945,25.8,20.9,1.7,25.4,22.0,2.1,5.73,1.71,2.5,29.9
2016-07-28 01:20:00,0.0,1.90163,0.00062,387.979,0.158,0.9216,0.0153,140.003,45.000,31875.64047,1.91941,392.411,36.938,45.069,44.999,0.00,0.09,-272.78,-272.84,-17,529,-945,25.8,21.4,2.0,25.4,21.9,2.1,5.73,1.76,2.6,29.9
2016-07-28 01:21:00,0.0,1.90123,0.00043,387.919,0.230,0.9174,0.0214,140.000,45.000,31875.76486,1.91891,392.323,36.921,45.069,44.999,0.00,0.09,-272.78,-272.84,-16,529,-945,25.8,21.1,1.9,25.5,22.2,2.3,5.73,1.93,2.6,29.9
2016-07-28 01:22:00,0.0,1.90074,0.00047,387.758,0.289,0.9397,0.0172,139.998,45.000,31875.70578,1.91883,392.273,36.908,45.069,44.999,0.00,0.09,-272.79,-272.86,-17,529,-945,25.8,21.8,2.3,25.5,22.3,2.3,5.73,1.62,2.6,29.9
2016-07-28 01:23:00,0.0,1.90152,0.00036,388.067,0.112,0.9018,0.0213,140.000,45.000,31875.74048,1.91894,392.402,36.877,45.069,44.999,0.00,0.09,-272.80,-272.84,-18,529,-945,25.8,20.7,1.6,25.5,22.0,2.2,5.73,1.90,2.6,29.9
2016-07-28 01:24:00,0.0,1.90122,0.00040,388.008,0.127,0.8963,0.0113,139.998,45.000,31874.47996,1.91844,392.312,36.855,45.069,44.999,0.00,0.09,-272.78,-272.84,-16,529,-945,25.8,20.7,1.6,25.5,21.4,1.8,5.73,1.82,2.6,29.9
2016-07-28 01:25:00,0.0,1.90109,0.00053,387.830,0.236,0.9134,0.0112,140.001,45.000,31874.37643,1.91872,392.221,36.819,45.069,45.000,0.00,0.09,-272.79,-272.85,-16,529,-945,25.8,21.1,1.9,25.5,21.8,2.0,5.73,1.66,2.6,29.8
2016-07-28 01:26:00,0.0,1.90135,0.00078,387.812,0.242,0.9059,0.0184,139.999,45.000,31873.32226,1.91877,392.161,36.812,45.069,45.000,0.00,0.09,-272.79,-272.85,-18,529,-945,25.8,20.8,1.7,25.5,21.8,2.1,5.73,1.97,2.6,29.9
2016-07-28 01:27:00,0.0,1.90155,0.00045,388.142,0.219,0.9077,0.0069,140.002,45.000,31872.46128,1.91902,392.498,36.803,45.069,45.000,0.00,0.09,-272.78,-272.83,-16,529,-945,25.8,21.0,1.8,25.5,21.7,2.0,5.73,1.68,2.6,29.9
2016-07-28 01:28:00,0.0,1.90140,0.00043,388.001,0.205,1.0159,0.0396,140.001,45.000,31873.38198,1.92099,392.883,36.807,45.069,45.000,0.00,0.09,-272.78,-272.84,-16,529,-945,25.8,23.6,3.5,25.5,23.4,3.0,5.73,1.79,2.6,29.8
2016-07-28 01:29:00,0.0,1.90129,0.00032,388.252,0.067,1.0436,0.0094,139.998,45.000,31873.43740,1.92146,393.287,36.812,45.069,45.000,0.00,0.09,-272.79,-272.85,-17,529,-945,25.8,24.2,3.8,25.5,24.9,3.9,5.73,1.92,2.6,29.8
2016-07-28 01:30:00,0.0,1.90132,0.00047,388.179,0.105,1.0463,0.0040,139.999,45.000,31873.42696,1.92158,393.235,36.813,45.069,45.000,0.00,0.09,-272.78,-272.85,-17,529,-945,25.8,24.2,3.8,25.5,25.0,4.0,5.73,1.62,2.6,29.9
2016-07-28 01:31:00,0.0,1.90076,0.00037,388.034,0.124,1.0450,0.0178,140.000,45.000,31873.83853,1.92103,393.081,36.813,45.069,45.000,0.00,0.09,-272.78,-272.84,-16,529,-945,25.8,24.1,3.7,25.5,25.1,4.0,5.73,1.92,2.6,29.9
2016-07-28 01:32:00,0.0,1.90079,0.00039,388.125,0.070,1.0235,0.0058,140.001,45.000,31875.34209,1.92054,393.059,36.813,45.069,45.000,0.00,0.09,-272.78,-272.85,-17,529,-945,25.8,23.6,3.5,25.5,24.5,3.7,5.73,1.79,2.6,29.9
2016-07-28 01:33:00,0.0,1.90055,0.00042,388.034,0.146,1.0312,0.0102,140.001,45.000,31874.60476,1.92051,393.013,36.812,45.069,45.000,0.00,0.09,-272.79,-272.85,-17,530,-945,25.8,23.8,3.6,25.5,24.6,3.8,5.73,1.68,2.6,29.9
2016-07-28 01:34:00,0.0,1.90006,0.00038,388.058,0.187,1.0237,0.0179,140.000,45.000,31876.52869,1.91985,392.996,36.773,45.069,45.000,0.00,0.09,-272.79,-272.84,-16,529,-945,25.9,23.5,3.4,25.5,24.6,3.8,5.73,1.97,2.7,29.9
2016-07-28 01:35:00,0.0,1.90018,0.00039,388.134,0.119,1.0112,0.0119,140.000,45.000,31876.19646,1.91969,393.011,36.757,45.069,45.000,0.00,0.09,-272.78,-272.85,-17,529,-945,25.8,23.3,3.3,25.5,24.3,3.6,5.73,1.66,2.7,29.8
2016-07-28 01:36:00,0.0,1.90022,0.00054,388.276,0.104,1.0023,0.0117,139.999,45.000,31875.94685,1.91961,393.107,36.753,45.070,45.000,0.00,0.09,-272.80,-272.85,-17,529,-945,25.8,23.0,3.1,25.5,24.1,3.5,5.73,1.81,2.7,29.8
2016-07-28 01:37:00,0.0,1.90008,0.00053,388.208,0.168,0.9833,0.0111,139.997,45.000,31875.73906,1.91907,392.949,36.750,45.070,45.000,0.00,0.09,-272.79,-272.85,-16,529,-945,25.9,22.6,2.9,25.5,23.6,3.2,5.73,1.91,2.7,29.9
2016-07-28 01:38:00,0.0,1.90021,0.00041,388.286,0.132,0.9682,0.0170,139.999,45.000,31876.62846,1.91887,392.951,36.750,45.070,45.000,0.00,0.09,-272.78,-272.84,-17,529,-945,25.8,22.4,2.7,25.5,23.2,3.0,5.73,1.62,2.7,29.9
2016-07-28 01:39:00,0.0,1.90009,0.00029,388.198,0.098,0.9925,0.0118,139.999,45.000,31877.00392,1.91926,392.978,36.749,45.070,45.000,0.00,0.09,-272.79,-272.84,-17,529,-945,25.9,22.8,3.0,25.5,23.7,3.3,5.73,1.93,2.7,29.9
2016-07-28 01:40:00,0.0,1.90004,0.00039,388.186,0.078,0.9861,0.0065,140.000,45.000,31876.16548,1.91908,392.937,36.750,45.070,45.000,0.00,0.09,-272.78,-272.84,-16,529,-945,25.9,22.7,2.9,25.5,23.6,3.2,5.73,1.78,2.7,29.9
2016-07-28 01:41:00,0.0,1.89990,0.00039,388.213,0.144,0.9812,0.0063,139.998,45.000,31876.77363,1.91881,392.940,36.750,45.069,45.000,0.00,0.09,-272.78,-272.84,-17,529,-945,25.9,22.5,2.8,25.5,23.5,3.2,5.73,1.68,2.7,29.9
2016-07-28 01:42:00,0.0,1.89994,0.00043,388.268,0.074,0.9726,0.0065,140.000,45.000,31876.99457,1.91867,392.957,36.756,45.069,45.000,0.00,0.09,-272.79,-272.85,-17,530,-945,25.9,22.4,2.8,25.5,23.3,3.0,5.73,1.97,2.7,29.9
2016-07-28 01:43:00,0.0,1.90010,0.00053,388.286,0.162,0.9701,0.0158,139.998,45.000,31875.93613,1.91884,392.960,36.762,45.069,45.000,0.00,0.09,-272.78,-272.86,-16,530,-945,25.9,22.4,2.8,25.5,23.1,2.9,5.73,1.66,2.7,29.9
2016-07-28 01:44:00,0.0,1.89968,0.00046,388.064,0.175,0.9915,0.0157,139.999,45.000,31877.52004,1.91882,392.838,36.752,45.069,45.000,0.00,0.09,-272.78,-272.84,-17,530,-945,25.9,22.7,3.0,25.5,23.7,3.3,5.73,1.81,2.7,29.9
2016-07-28 01:45:00,0.0,1.90019,0.00046,388.256,0.107,0.9748,0.0178,139.999,45.000,31877.04908,1.91899,392.951,36.750,45.070,45.000,0.00,0.09,-272.78,-272.85,-18,530,-945,25.9,22.5,2.9,25.5,23.2,3.0,5.73,1.90,2.7,29.8
2016-07-28 01:46:00,0.0,1.89971,0.00051,388.050,0.175,1.0122,0.0135,140.000,45.000,31879.70677,1.91926,392.932,36.749,45.070,45.000,0.00,0.09,-272.79,-272.85,-16,530,-945,25.9,23.2,3.3,25.5,24.0,3.5,5.73,1.62,2.7,29.8